CW1492 Weather Reports


Display with metric or nautical units.
time (UTC)temp
F
wind
direction
speed
MPH
gust
MPH
rain 1hr
in
rain 24hr
in
rain mn
in
humidity
%
barometer
mb
20260906204909 67 322 1.0 3.0 0.00 0.28 0.15 66 1015.3
20260906204826 69 35 4.0 10.0 0.00 0.24 0.14 45 1016.8
20260906203333 69 317 2.0 5.0 0.00 0.28 0.15 62 1015.2
20260906203331 70 350 4.0 11.0 0.00 0.24 0.14 46 1016.6
20260906201912 70 260 4.0 10.0 0.00 0.24 0.14 45 1016.5
20260906201834 70 306 1.0 5.0 0.00 0.28 0.15 62 1015.1
20260906200426 68 331 4.0 8.0 0.00 0.24 0.14 47 1016.6
20260906200356 70 307 3.0 9.0 0.00 0.28 0.15 59 1015.1
20260906200314 70 307 3.0 9.0 0.00 0.28 0.15 59 1015.1
20260906194917 69 9 5.0 10.0 0.00 0.24 0.14 44 1016.5
20260906194815 70 276 2.0 6.0 0.00 0.28 0.15 60 1015.1
20260906193327 71 303 6.0 10.0 0.00 0.24 0.14 43 1016.6
20260906193312 70 207 2.0 6.0 0.00 0.28 0.15 61 1015.1
20260906191841 69 287 2.0 11.0 0.00 0.28 0.15 62 1015.2
20260906191832 70 293 3.0 11.0 0.00 0.24 0.14 48 1016.6
20260906190346 70 313 2.0 7.0 0.00 0.28 0.15 62 1015.3
20260906190336 70 280 5.0 11.0 0.00 0.24 0.14 52 1016.7
20260906184837 69 6 4.0 9.0 0.00 0.24 0.14 60 1016.7
20260906184825 70 342 2.0 9.0 0.00 0.28 0.15 65 1015.3
20260906183357 69 287 6.0 10.0 0.00 0.24 0.14 62 1016.7
20260906183319 69 97 3.0 9.0 0.00 0.28 0.15 63 1015.4
20260906181927 68 351 3.0 11.0 0.00 0.28 0.15 69 1015.6
20260906181836 68 260 4.0 12.0 0.00 0.24 0.14 64 1016.9
20260906180345 68 337 4.0 11.0 0.00 0.24 0.14 65 1016.9
20260906180326 68 92 2.0 6.0 0.00 0.28 0.15 72 1015.6
20260906174849 68 313 5.0 9.0 0.00 0.24 0.14 70 1017.2
20260906174821 67 52 1.0 8.0 0.00 0.28 0.15 73 1015.8
20260906173425 66 314 4.0 8.0 0.00 0.24 0.14 72 1017.3
20260906173318 66 274 2.0 10.0 0.00 0.28 0.15 77 1015.9
20260906171839 64 341 5.0 9.0 0.00 0.24 0.14 73 1017.4
20260906171837 64 34 0.0 4.0 0.00 0.28 0.15 81 1016.0
20260906170408 63 308 2.0 7.0 0.00 0.28 0.15 82 1016.1
20260906170353 64 302 5.0 14.0 0.00 0.24 0.14 69 1017.6
20260906164829 65 304 4.0 12.0 0.00 0.28 0.15 79 1016.2
20260906164827 65 341 4.0 10.0 0.00 0.24 0.14 74 1017.6
20260906163418 66 279 1.0 14.0 0.00 0.28 0.15 76 1016.1
20260906163404 66 276 5.0 11.0 0.00 0.24 0.14 70 1017.6
20260906161903 65 35 2.0 10.0 0.00 0.24 0.14 75 1017.6
20260906161853 65 25 1.0 5.0 0.00 0.28 0.15 82 1016.2
20260906160415 63 357 3.0 11.0 0.00 0.24 0.14 79 1017.8
20260906160358 63 344 1.0 10.0 0.00 0.28 0.15 83 1016.5
20260906154829 63 283 5.0 13.0 0.00 0.24 0.14 80 1017.9
20260906154820 64 293 3.0 9.0 0.00 0.28 0.15 83 1016.5
20260906153412 63 227 5.0 11.0 0.00 0.24 0.14 82 1017.8
20260906153340 63 299 2.0 8.0 0.00 0.28 0.15 83 1016.5
20260906153329 63 227 5.0 11.0 0.00 0.24 0.14 82 1017.8
20260906151927 63 306 2.0 6.0 0.00 0.28 0.15 86 1016.5
20260906151850 62 14 4.0 8.0 0.00 0.24 0.14 84 1018.0
20260906151823 63 306 2.0 6.0 0.00 0.28 0.15 86 1016.5
20260906150356 61 345 0.0 5.0 0.00 0.24 0.14 87 1018.1
20260906150322 62 42 2.0 5.0 0.00 0.28 0.15 87 1016.6
20260906144947 60 206 2.0 4.0 0.00 0.24 0.14 88 1017.9
20260906144844 60 206 2.0 4.0 0.00 0.24 0.14 88 1017.9
20260906144838 61 53 1.0 4.0 0.00 0.28 0.15 92 1016.5
20260906143409 60 349 3.0 5.0 0.00 0.24 0.14 90 1018.0
20260906143356 60 319 1.0 4.0 0.00 0.28 0.15 93 1016.5
20260906141831 59 136 1.0 2.0 0.00 0.28 0.15 95 1016.6
20260906141829 59 263 1.0 4.0 0.02 0.24 0.14 90 1018.1
20260906140422 58 280 2.0 5.0 0.02 0.24 0.14 90 1018.1
20260906140317 59 67 1.0 3.0 0.00 0.28 0.15 97 1016.5
20260906134842 58 321 1.0 3.0 0.02 0.24 0.14 90 1018.1
20260906134812 58 360 1.0 3.0 0.00 0.28 0.15 96 1016.5
20260906133352 58 324 2.0 6.0 0.02 0.24 0.14 90 1018.1
20260906133346 58 323 1.0 2.0 0.00 0.28 0.15 97 1016.6
20260906131834 58 284 1.0 3.0 0.00 0.22 0.12 90 1018.0
20260906131819 58 292 1.0 4.0 0.00 0.28 0.15 97 1016.4
20260906130409 58 323 1.0 2.0 0.00 0.28 0.15 97 1016.3
20260906130343 58 306 1.0 4.0 0.00 0.22 0.12 90 1017.8
20260906124851 58 308 0.0 3.0 0.00 0.22 0.12 90 1017.9
20260906124831 57 5 1.0 3.0 0.00 0.28 0.15 97 1016.6
20260906123438 58 348 2.0 4.0 0.00 0.22 0.12 90 1017.8
20260906123335 57 350 1.0 3.0 0.00 0.28 0.15 97 1016.3
20260906121844 57 290 2.0 6.0 0.00 0.22 0.12 90 1017.8
20260906121814 57 316 1.0 2.0 0.00 0.28 0.15 98 1016.2
20260906120408 57 311 1.0 4.0 0.00 0.28 0.15 97 1016.2
20260906120327 57 341 2.0 4.0 0.00 0.22 0.12 90 1017.7
20260906114901 57 297 1.0 3.0 0.01 0.22 0.12 90 1017.5
20260906113347 57 322 1.0 3.0 0.01 0.22 0.12 90 1017.4
20260906113323 57 346 1.0 2.0 0.01 0.28 0.15 97 1015.7
20260906111852 57 291 0.0 3.0 0.02 0.22 0.12 90 1017.2
20260906111824 57 345 1.0 2.0 0.01 0.28 0.15 97 1015.6
20260906110440 57 340 0.0 5.0 0.02 0.22 0.12 90 1017.0
20260906110348 57 317 1.0 2.0 0.01 0.28 0.15 97 1015.4
20260906104844 57 5 1.0 2.0 0.00 0.27 0.14 97 1015.5
20260906104839 57 328 0.0 2.0 0.01 0.21 0.11 90 1017.0
20260906103430 57 9 1.0 2.0 0.00 0.27 0.14 97 1015.2
20260906103347 57 356 1.0 2.0 0.01 0.21 0.11 90 1016.8
20260906101935 57 40 0.0 1.0 0.00 0.27 0.14 97 1014.9
20260906101846 57 290 0.0 0.0 0.00 0.20 0.10 90 1016.5
20260906100330 57 92 0.0 0.0 0.00 0.27 0.14 97 1014.9
20260906094851 57 218 0.0 0.0 0.04 0.20 0.10 90 1016.3
20260906094824 57 92 0.0 0.0 0.00 0.27 0.14 97 1014.7
20260906093353 58 92 0.0 2.0 0.01 0.27 0.14 97 1014.6
20260906093338 57 218 0.0 0.0 0.05 0.20 0.10 90 1016.2
20260906091851 58 112 0.0 1.0 0.02 0.27 0.14 97 1014.5
20260906091825 57 218 0.0 2.0 0.06 0.20 0.10 89 1016.0
20260906090353 58 323 0.0 2.0 0.06 0.18 0.08 90 1015.9
20260906090319 58 116 0.0 3.0 0.08 0.27 0.14 97 1014.4
20260906084901 58 331 1.0 2.0 0.05 0.16 0.06 90 1015.9
20260906084855 58 18 0.0 2.0 0.13 0.27 0.14 97 1014.4
20260906083328 58 357 0.0 1.0 0.04 0.15 0.05 90 1015.9
20260906083321 58 351 0.0 0.0 0.12 0.26 0.13 97 1014.4
20260906081840 58 351 0.0 0.0 0.10 0.24 0.11 97 1014.4
20260906081835 58 357 0.0 2.0 0.03 0.14 0.04 89 1015.8
20260906080422 58 331 0.0 1.0 0.01 0.12 0.02 89 1015.9
20260906080344 58 351 0.0 1.0 0.04 0.18 0.05 97 1014.4
20260906074909 58 351 0.0 2.0 0.00 0.14 0.01 97 1014.3
20260906074844 58 335 0.0 1.0 0.00 0.11 0.01 89 1015.8
20260906073411 58 335 0.0 0.0 0.01 0.11 0.01 89 1015.6
20260906073335 58 347 0.0 1.0 0.00 0.14 0.01 97 1014.2
20260906071852 58 335 0.0 0.0 0.01 0.11 0.01 89 1015.6
20260906071835 58 347 0.0 0.0 0.00 0.14 0.01 97 1014.0
20260906070347 58 335 0.0 0.0 0.01 0.11 0.01 89 1015.6
20260906070338 58 347 1.0 1.0 0.00 0.14 0.01 97 1014.1
20260906064919 58 309 1.0 2.0 0.01 0.14 0.01 97 1014.1
20260906064848 58 335 0.0 0.0 0.01 0.11 0.01 89 1015.6
20260906064815 58 309 1.0 2.0 0.01 0.14 0.01 97 1014.1
20260906063400 58 281 2.0 2.0 0.01 0.14 0.01 97 1014.2
20260906063334 58 335 0.0 0.0 0.00 0.10 0.00 89 1015.7
20260906061847 58 335 0.0 0.0 0.00 0.10 0.00 89 1015.5
20260906061815 58 290 0.0 2.0 0.01 0.14 0.01 97 1014.1
20260906060413 58 335 0.0 0.0 0.00 0.10 0.00 89 1015.8
20260906060316 58 288 1.0 2.0 0.01 0.14 0.01 97 1014.2
20260906054855 58 335 0.0 0.0 0.00 0.10 0.00 89 1015.8
20260906054836 58 283 0.0 3.0 0.00 0.13 0.00 97 1014.2
20260906053340 58 329 1.0 1.0 0.00 0.13 0.00 97 1014.2
20260906053332 58 335 0.0 0.0 0.00 0.10 0.00 88 1015.7
20260906051907 58 330 0.0 2.0 0.00 0.13 0.00 96 1014.3
20260906051850 58 335 0.0 2.0 0.00 0.10 0.00 87 1015.7
20260906050351 58 301 1.0 3.0 0.00 0.10 0.00 87 1015.8
20260906050329 58 355 1.0 3.0 0.00 0.13 0.00 96 1014.3
20260906044827 59 30 1.0 3.0 0.00 0.10 0.00 87 1015.7
20260906044824 59 360 1.0 3.0 0.00 0.13 0.00 96 1014.3
20260906043407 59 355 1.0 2.0 0.00 0.13 0.00 96 1014.4
20260906043333 59 3 1.0 3.0 0.00 0.10 0.00 87 1015.9
20260906041926 59 349 1.0 2.0 0.00 0.10 0.00 87 1015.8
20260906041844 59 349 1.0 2.0 0.00 0.10 0.00 87 1015.8
20260906041818 59 9 1.0 3.0 0.00 0.13 0.13 96 1014.3
20260906040412 59 5 0.0 2.0 0.01 0.10 0.00 87 1015.8
20260906040408 59 338 0.0 2.0 0.00 0.13 0.13 96 1014.4
20260906034851 59 52 0.0 3.0 0.02 0.10 0.10 86 1015.8
20260906034822 60 338 0.0 1.0 0.01 0.13 0.13 95 1014.3
20260906033435 60 338 1.0 2.0 0.01 0.13 0.13 94 1014.1
20260906033342 60 43 1.0 3.0 0.02 0.10 0.10 87 1015.5
20260906031917 60 326 1.0 3.0 0.09 0.13 0.13 94 1014.0
20260906031828 60 294 2.0 3.0 0.06 0.10 0.10 85 1015.5
20260906030338 60 25 0.0 1.0 0.05 0.09 0.09 84 1015.3
20260906030314 61 26 0.0 1.0 0.13 0.13 0.13 93 1013.9
20260906024839 60 330 1.0 4.0 0.04 0.08 0.08 80 1015.4
20260906024837 62 77 1.0 5.0 0.12 0.12 0.12 92 1013.9
20260906023406 63 81 1.0 5.0 0.12 0.12 0.12 90 1013.8
20260906023348 61 143 1.0 3.0 0.04 0.08 0.08 77 1015.1
20260906021845 64 74 2.0 5.0 0.04 0.04 0.04 88 1013.8
20260906021832 61 360 1.0 3.0 0.00 0.04 0.04 75 1015.1
20260906020336 62 360 3.0 4.0 0.00 0.04 0.04 74 1014.9
20260906020327 64 109 3.0 5.0 0.00 0.00 0.00 85 1013.6
20260906014838 62 97 2.0 5.0 0.00 0.04 0.04 73 1014.5
20260906014829 64 19 0.0 9.0 0.00 0.00 0.00 85 1013.4
20260906013417 64 75 0.0 8.0 0.00 0.00 0.00 86 1013.4
20260906013346 63 168 1.0 6.0 0.04 0.04 0.04 77 1014.5
20260906011908 63 132 1.0 4.0 0.04 0.04 0.04 77 1014.4
20260906011901 64 54 1.0 5.0 0.00 0.00 0.00 90 1013.4
20260906010333 63 103 2.0 4.0 0.04 0.04 0.04 74 1014.4
20260906010323 64 105 0.0 1.0 0.00 0.00 0.00 90 1013.3
20260906004900 66 105 0.0 0.0 0.00 0.00 0.00 87 1013.1
20260906004837 64 110 2.0 4.0 0.04 0.04 0.04 70 1014.2
20260906003344 66 72 4.0 9.0 0.00 0.00 0.00 66 1014.1
20260906003321 66 341 0.0 1.0 0.00 0.00 0.00 85 1013.0
20260906001902 65 341 0.0 1.0 0.00 0.00 0.00 84 1012.8
20260906001848 66 263 0.0 1.0 0.00 0.00 0.00 64 1013.9
20260906000440 66 263 0.0 1.0 0.00 0.00 0.00 62 1014.0
20260906000326 66 341 0.0 0.0 0.00 0.00 0.00 83 1012.7
20260905234843 67 349 1.0 3.0 0.00 0.00 0.00 62 1013.8
20260905233330 67 354 2.0 5.0 0.00 0.00 0.00 62 1013.6
20260905233322 67 340 0.0 1.0 0.00 0.00 0.00 81 1012.4
20260905231855 68 338 0.0 1.0 0.00 0.00 0.00 61 1013.7
20260905231827 67 346 0.0 0.0 0.00 0.00 0.00 81 1012.3
20260905230355 68 346 0.0 1.0 0.00 0.00 0.00 78 1012.1
20260905230333 68 329 0.0 2.0 0.00 0.00 0.00 61 1013.5
20260905224836 69 19 0.0 1.0 0.00 0.00 0.00 59 1013.4
20260905224814 69 346 0.0 1.0 0.00 0.00 0.00 76 1012.1
20260905223327 69 19 0.0 2.0 0.00 0.00 0.00 58 1013.4
20260905223317 69 313 1.0 2.0 0.00 0.00 0.00 75 1012.0
20260905221927 70 321 2.0 3.0 0.00 0.00 0.00 72 1011.9
20260905221919 69 19 1.0 5.0 0.00 0.00 0.00 57 1013.3
20260905221845 70 321 2.0 3.0 0.00 0.00 0.00 72 1011.9
20260905220343 69 7 2.0 3.0 0.00 0.00 0.00 56 1013.2
20260905220332 71 312 1.0 2.0 0.00 0.00 0.00 69 1011.9
20260905214848 71 299 1.0 5.0 0.00 0.00 0.00 69 1011.7
20260905214842 69 353 3.0 6.0 0.00 0.00 0.00 55 1013.1
20260905213414 70 339 2.0 5.0 0.00 0.00 0.00 55 1012.9
20260905213325 71 322 1.0 4.0 0.00 0.00 0.00 70 1011.5
20260905211842 71 212 1.0 8.0 0.00 0.00 0.00 53 1012.6
20260905211827 72 297 1.0 5.0 0.00 0.00 0.00 68 1011.2
20260905210432 72 8 3.0 9.0 0.00 0.00 0.00 52 1012.6
20260905210315 72 325 1.0 3.0 0.00 0.00 0.00 68 1011.1